Wind_Speed
12 12 12 11 11 11 10 10 9 9 9 9 9 9 9 8 8 8 8 8 7 7 7 6 6 6 7 7 7 7 7 6 6 6 5 6 6 6 6 6 7 7 7 8 8 8 8 8 8 7 8 7 7 6 6 7 7 8 9 9 12 11 11 14 14 14 14 15 19 16 15 16 16 16 14 16 17 17 19 18 19 20 19 21 20 22 25 23
13 13 13 12 12 12 11 11 11 10 10 10 10 10 10 10 10 9 9 9 9 9 8 8 8 8 8 8 8 8 8 8 8 7 5 5 6 6 6 6 6 6 7 8 8 8 8 8 8 8 8 8 8 8 8 8 9 9 9 10 12 12 13 16 16 16 16 15 17 17 16 15 17 18 16 17 18 18 19 18 19 20 19 21 21 23 25 23
14 14 13 14 13 13 13 12 12 12 11 11 11 11 11 11 11 11 10 10 10 10 10 10 9 9 9 9 9 9 9 10 10 8 6 6 7 7 7 7 7 7 7 8 8 8 8 8 9 9 10 10 10 10 10 10 10 11 11 12 12 15 17 18 17 16 16 15 17 17 17 16 17 19 18 17 19 19 18 15 18 19 18 22 23 23 25 23
15 15 15 15 15 14 14 14 13 13 13 13 12 12 11 11 11 11 11 11 11 11 11 11 11 11 10 10 10 10 10 11 10 8 8 7 8 8 8 8 8 8 9 9 9 9 9 9 9 10 11 12 12 12 13 12 13 13 14 14 14 17 19 20 19 18 18 17 17 18 18 18 18 19 19 19 20 18 15 14 17 19 19 23 23 21 24 24
16 16 16 16 16 16 16 15 15 15 15 14 13 13 13 12 12 12 12 12 12 11 12 12 12 12 12 12 12 11 11 11 9 7 8 9 8 8 8 8 8 9 10 10 10 9 10 9 10 11 11 12 13 14 14 13 14 17 17 17 18 19 20 21 21 19 20 19 19 20 20 20 20 20 20 21 21 15 13 17 19 21 23 25 23 20 23 24
18 18 17 17 17 17 17 17 17 16 16 16 15 14 14 13 13 13 13 13 13 12 12 13 13 13 13 13 13 12 12 10 9 8 9 10 9 8 9 9 9 10 11 11 10 10 10 11 11 12 12 13 14 15 16 16 16 18 19 19 20 20 22 23 22 20 21 20 21 21 22 23 22 23 23 24 22 15 16 20 21 24 24 25 24 22 22 23
19 19 19 19 19 19 18 18 18 18 18 17 17 16 15 15 14 14 14 14 14 13 13 13 14 14 14 14 14 14 14 12 12 12 12 11 10 9 9 9 10 10 11 11 11 11 11 12 13 13 13 13 14 16 17 18 19 19 19 20 21 20 22 23 22 21 21 22 22 23 23 24 24 25 26 25 21 18 20 22 22 24 25 25 25 24 24 24
21 21 21 20 20 20 20 20 20 19 19 19 19 18 17 16 16 15 15 15 14 14 15 14 14 14 15 15 15 16 15 12 13 14 12 12 11 9 9 10 10 11 11 11 11 11 12 13 14 14 15 14 15 17 19 19 20 21 20 21 22 21 22 22 22 22 23 24 24 24 24 23 25 27 27 24 20 18 19 21 24 25 26 27 27 27 27 27
22 22 22 22 22 21 21 21 21 21 21 20 20 20 19 18 17 17 16 16 16 16 16 16 16 15 16 16 17 18 15 12 14 15 13 13 12 11 11 11 11 12 12 11 11 12 13 14 14 15 16 17 18 19 19 18 20 22 23 24 24 22 22 22 22 22 24 24 24 26 25 24 25 28 28 21 17 17 17 22 25 26 27 28 28 29 30 30
22 23 23 24 23 23 23 22 22 22 22 22 21 21 21 20 19 19 18 18 17 17 17 17 17 16 17 16 18 19 15 13 15 15 15 15 14 13 13 12 13 13 12 12 13 13 14 15 15 16 18 19 19 19 20 20 21 24 25 25 24 23 24 24 24 23 23 23 25 25 25 25 25 27 25 19 16 17 20 25 26 27 28 28 29 30 32 32
24 24 24 25 25 25 24 24 24 23 23 23 23 23 23 22 21 21 20 20 19 19 19 19 18 18 18 18 20 19 16 16 17 16 17 16 16 16 15 15 15 14 14 14 14 14 14 15 16 17 18 19 19 20 22 22 24 24 25 26 25 26 27 27 25 24 24 24 23 23 25 27 28 28 22 19 20 21 23 26 26 28 29 29 31 31 33 33
24 25 25 25 26 26 26 26 25 24 24 24 24 24 24 24 24 23 23 22 22 21 21 21 20 20 20 20 21 19 18 19 19 18 19 19 18 18 17 17 17 16 16 15 16 15 15 16 17 18 19 20 21 23 23 23 24 25 26 28 28 29 30 28 26 24 24 24 23 22 26 29 30 29 23 19 22 22 24 27 27 28 29 30 32 33 34 34
25 25 26 26 27 27 27 27 27 26 26 25 25 26 26 27 26 26 25 25 24 24 24 23 23 23 23 23 21 20 20 21 20 20 20 20 21 20 20 19 19 18 18 17 17 16 17 18 18 20 21 22 24 23 24 25 26 27 28 30 30 30 31 29 26 24 22 24 24 22 26 31 32 31 28 24 21 21 25 28 28 29 30 32 33 35 36 36
26 26 27 27 27 28 28 29 28 28 27 27 27 27 28 28 28 28 28 27 27 27 26 26 26 25 26 25 22 21 21 21 22 22 22 22 23 22 22 21 20 20 20 19 19 18 19 19 20 22 23 24 24 24 26 27 29 28 28 30 30 29 29 27 25 24 24 26 25 23 28 34 33 30 30 29 24 22 26 29 30 30 31 33 33 35 37 37
27 27 27 28 28 28 28 29 29 29 29 28 28 28 29 30 30 30 30 30 29 29 29 29 28 28 29 28 25 23 24 23 23 22 23 24 25 25 24 23 23 23 22 21 21 21 21 21 22 24 26 26 25 25 26 27 29 28 26 26 25 23 24 25 27 27 26 27 26 25 28 34 34 30 30 33 32 28 28 30 31 31 32 34 36 36 36 37
29 29 29 29 29 29 29 29 29 29 29 29 29 29 29 31 31 32 32 32 31 31 31 31 30 30 31 29 26 25 24 23 23 23 25 26 27 27 25 25 25 24 24 23 23 23 23 23 24 26 28 28 27 26 25 24 26 25 25 26 23 22 22 22 27 29 27 28 30 29 31 35 35 33 33 38 39 33 31 32 33 34 34 36 39 40 38 37
31 31 31 31 31 31 30 30 30 29 29 29 29 29 29 30 31 32 33 33 32 32 32 33 32 33 33 30 28 27 24 23 23 24 25 27 28 28 27 27 27 26 26 25 25 26 26 26 27 27 29 30 29 27 21 20 22 20 21 23 23 23 22 22 27 30 30 31 32 33 37 39 37 35 35 38 41 39 36 36 35 35 37 39 42 43 41 38
33 33 33 33 33 32 32 32 32 31 31 29 29 29 29 30 31 32 33 33 33 32 33 33 32 32 31 29 29 27 26 25 26 26 26 28 28 28 28 28 28 27 27 27 27 27 27 28 28 28 31 32 31 29 24 24 25 21 19 21 22 23 24 26 27 30 33 33 34 36 41 44 42 40 37 36 39 41 42 41 39 39 39 39 38 38 38 36
35 35 35 35 34 34 34 34 34 34 33 32 31 30 30 31 32 33 34 34 34 33 33 33 32 30 27 27 27 26 26 25 26 26 27 29 29 29 29 29 29 28 29 30 30 30 30 30 30 31 34 34 33 33 33 32 30 27 26 27 29 29 32 32 30 33 37 37 40 42 44 47 46 45 43 40 38 40 44 43 43 43 36 30 30 32 32 31
36 36 36 36 36 35 36 35 35 35 35 34 33 33 33 34 35 35 36 36 35 34 33 34 35 33 31 32 30 29 30 29 28 28 27 27 28 29 30 30 31 31 32 33 33 33 33 32 34 36 36 34 32 32 35 36 33 32 33 33 34 35 38 38 35 39 41 40 43 45 46 49 48 49 48 44 41 42 44 43 44 38 26 25 30 30 29 28
37 37 37 37 37 36 37 37 36 35 35 35 35 35 36 36 37 38 38 39 38 36 36 37 37 36 35 34 32 32 33 34 34 32 32 31 29 30 31 31 33 34 36 35 36 36 34 35 39 38 35 35 34 34 36 38 36 36 35 34 35 36 40 40 38 42 43 42 44 44 46 51 52 53 51 47 46 45 44 43 37 26 22 30 32 28 29 31
34 36 37 38 37 37 37 38 37 36 36 35 35 36 37 37 38 39 40 43 43 40 39 39 39 39 37 35 34 34 35 36 36 35 35 35 35 36 38 37 36 38 38 36 38 38 36 40 42 37 35 37 36 35 35 36 36 36 35 34 35 37 40 39 37 41 41 40 43 45 49 55 56 55 53 49 48 44 41 36 25 22 29 34 29 28 33 34
32 33 35 36 37 37 38 38 38 37 37 36 36 36 37 37 38 39 40 45 47 44 42 42 42 40 38 37 36 35 37 38 37 37 36 36 39 39 41 42 39 40 40 39 41 41 40 42 42 38 37 38 38 37 35 35 35 34 34 34 37 38 37 37 35 37 40 41 45 48 52 60 60 55 54 50 44 39 31 23 21 29 36 32 28 31 35 33
32 32 33 34 34 34 37 38 38 37 37 38 37 37 37 38 38 39 41 47 51 49 45 44 43 42 40 38 37 36 39 39 39 39 36 38 40 40 42 43 40 42 44 43 44 46 46 45 44 43 42 41 42 42 39 38 39 37 34 35 38 38 36 36 36 38 45 45 46 46 45 55 56 45 45 43 37 36 29 22 28 36 36 31 30 30 31 30
33 32 33 32 32 32 34 36 36 36 37 37 38 38 38 39 39 39 41 46 52 53 49 47 45 43 41 39 38 39 41 42 41 39 38 40 41 42 44 43 42 46 46 45 46 50 50 48 48 47 45 45 45 45 41 38 41 39 36 36 36 36 36 37 37 39 41 36 36 31 22 34 38 25 32 40 38 45 40 31 35 38 33 28 26 27 29 29
34 34 33 33 33 32 32 34 34 34 35 36 37 37 37 38 38 37 39 44 51 52 48 46 43 40 39 37 36 36 39 44 42 39 41 42 42 44 44 45 46 46 46 45 45 48 50 49 48 45 44 44 44 44 40 38 40 37 35 37 36 36 37 37 37 35 29 23 28 25 16 27 34 31 43 50 47 52 46 37 37 33 26 24 26 29 28 24
36 35 34 34 34 33 34 34 33 33 34 33 34 35 35 35 34 33 33 33 36 37 35 33 32 33 34 31 29 30 34 38 36 36 40 42 43 45 45 48 48 46 47 43 40 45 49 47 44 43 42 41 41 41 37 35 38 38 37 37 35 37 37 37 36 32 30 32 33 33 31 33 38 45 55 54 47 45 41 36 33 27 24 26 28 26 22 18
37 36 36 35 35 34 35 35 35 35 33 32 33 33 33 33 32 30 22 14 14 15 14 14 15 18 20 17 18 23 26 29 28 28 30 33 38 42 44 47 47 47 48 44 44 49 49 46 45 43 40 38 39 38 33 32 36 39 38 36 35 36 37 36 34 30 32 32 24 25 29 24 31 47 50 43 37 32 32 30 25 27 31 28 24 18 19 20
34 35 35 35 35 35 34 34 35 35 34 34 32 32 33 31 30 25 15 11 13 13 11 11 12 12 12 14 17 21 24 26 26 25 25 26 30 34 37 39 41 45 46 46 51 51 47 46 45 43 40 40 40 36 34 34 36 39 38 36 35 34 34 32 30 29 26 23 21 26 25 16 27 43 31 21 23 24 27 26 26 33 28 20 19 19 21 23
32 33 33 33 35 34 35 35 34 34 34 34 33 33 31 29 27 18 12 15 14 10 10 13 16 16 16 20 21 23 25 25 27 28 27 28 29 31 34 34 35 39 41 42 46 47 45 45 44 42 40 41 40 37 37 36 37 39 37 35 32 30 32 29 27 26 18 17 28 37 34 23 21 22 12 14 23 24 26 30 33 30 17 17 27 29 26 22
35 35 34 34 33 33 34 34 33 33 32 32 33 33 30 28 24 15 14 22 21 18 19 15 15 17 19 23 24 25 26 27 29 30 30 30 31 34 36 35 34 35 37 41 44 43 42 44 44 43 41 41 41 40 40 40 39 38 34 31 24 19 19 17 15 13 7 12 23 27 27 26 21 13 11 18 19 20 32 36 27 19 19 28 35 32 26 21
39 38 38 37 35 35 36 35 34 33 31 33 32 31 30 22 22 28 29 25 17 16 22 20 19 20 20 23 27 27 28 31 30 29 30 31 33 38 38 37 37 31 29 36 40 40 44 46 43 40 41 42 41 41 41 42 41 40 36 28 15 7 8 8 6 6 9 17 24 22 14 21 35 36 32 29 21 24 36 28 14 20 31 33 32 28 22 20
41 41 41 41 39 38 38 39 38 34 35 35 32 32 27 15 24 47 47 34 21 16 18 18 17 18 19 24 27 25 27 31 29 28 30 33 36 40 40 39 40 34 29 30 29 28 33 39 41 41 41 41 42 43 42 43 43 42 39 29 15 6 5 7 6 7 13 18 23 25 16 16 28 35 34 33 30 29 28 22 22 33 34 26 25 24 21 21
42 43 44 45 44 43 43 43 41 39 38 35 32 30 24 22 39 51 43 42 41 33 30 25 21 22 25 29 30 26 28 30 30 29 32 36 39 42 42 41 40 40 40 36 32 27 21 27 37 37 34 37 40 39 39 43 45 43 40 31 22 16 9 8 8 7 8 13 16 14 12 12 17 25 33 34 34 30 25 29 37 36 29 23 23 22 21 22
46 45 45 47 48 47 46 44 42 41 39 35 31 29 31 38 52 49 40 43 42 37 39 37 33 32 33 35 34 31 31 32 33 33 36 40 41 42 43 42 40 40 40 36 34 33 27 34 44 38 35 39 38 35 34 36 38 39 34 26 25 28 25 20 21 21 13 13 15 13 18 33 41 48 55 47 43 40 32 31 34 31 29 25 21 22 20 19
49 49 48 50 52 51 49 46 43 42 43 40 33 35 43 52 52 42 37 37 34 36 38 36 36 36 35 37 38 36 34 35 37 37 38 41 43 44 45 44 42 41 42 40 36 31 24 31 43 39 38 42 40 38 37 33 30 29 26 28 32 37 33 23 22 28 17 10 19 21 24 42 49 49 52 40 32 33 26 24 27 28 28 24 22 22 19 19
45 47 47 50 53 52 49 48 46 43 43 42 40 43 52 59 55 46 40 36 33 32 29 30 34 35 34 35 37 39 37 37 41 39 38 40 40 45 47 46 45 43 43 43 41 38 30 31 42 40 34 36 35 33 35 38 36 30 27 30 32 30 29 22 11 12 11 8 19 27 28 35 33 27 29 23 20 25 23 21 25 28 27 25 25 22 18 21
45 47 48 49 50 50 49 49 50 48 44 42 44 49 56 59 57 52 49 46 40 32 27 30 32 32 34 33 33 35 33 37 42 40 40 41 40 45 45 43 45 44 41 41 41 43 39 33 41 46 39 35 35 31 32 37 38 38 38 36 29 17 15 19 12 7 10 6 11 25 31 37 38 32 28 26 26 27 22 19 26 32 31 28 26 22 21 24
48 49 51 50 48 46 47 48 49 49 46 44 46 51 55 56 54 52 52 52 46 37 33 34 33 31 34 33 29 28 29 35 40 40 40 40 41 46 45 41 42 39 37 39 39 43 43 33 32 43 41 32 33 37 38 40 38 39 40 38 35 24 13 16 17 14 12 7 10 18 21 33 43 33 24 24 23 18 14 20 32 33 30 30 28 25 25 28
50 51 52 51 49 47 47 48 49 49 49 49 50 53 54 53 51 51 52 51 47 42 37 35 33 32 34 35 32 30 31 32 36 38 40 41 42 45 45 42 41 39 36 35 35 38 42 38 32 37 35 28 36 43 43 45 44 42 42 40 39 34 25 18 20 26 20 7 7 8 10 34 46 27 15 17 14 12 16 30 36 30 28 29 27 27 30 32
50 52 55 55 53 52 48 45 47 49 51 53 54 56 57 55 52 50 50 48 45 43 39 36 35 34 34 34 33 33 34 34 37 39 40 45 45 43 42 40 38 37 35 35 37 36 38 41 39 39 37 39 49 55 51 50 47 44 44 44 43 41 35 20 15 30 32 16 15 12 9 39 58 36 19 15 11 15 28 39 42 36 34 33 31 37 42 39
45 47 52 53 53 52 48 47 49 50 53 55 55 56 55 53 51 48 47 48 46 44 43 42 42 42 41 38 37 36 36 39 42 43 44 48 48 45 44 40 36 37 36 36 38 39 40 41 40 41 46 49 52 51 49 48 46 44 44 44 44 45 44 31 15 19 26 22 30 28 15 40 71 57 36 30 31 39 48 53 52 47 44 43 43 47 46 38
45 44 45 46 46 44 42 44 48 50 53 54 53 52 50 50 49 45 45 46 45 44 44 44 45 46 47 46 43 39 38 40 43 45 46 46 47 46 44 42 40 41 40 38 38 39 38 36 35 36 40 43 46 47 48 47 40 38 42 44 45 45 48 45 33 27 22 19 28 23 11 37 74 68 53 55 59 61 59 58 57 52 50 51 52 49 43 40
51 50 50 49 48 45 45 45 47 50 52 51 51 50 48 49 49 48 50 49 45 44 44 45 46 46 47 47 44 42 41 38 39 42 42 41 43 44 42 40 42 43 42 40 40 39 35 33 31 24 20 23 32 39 43 44 40 39 42 43 44 45 44 42 42 36 26 31 41 22 8 38 69 61 51 57 61 61 62 62 60 57 56 58 57 53 50 51
52 52 53 53 50 47 48 47 47 50 51 48 50 51 51 54 54 53 54 51 47 46 47 48 49 48 47 45 45 45 42 39 38 38 37 35 36 39 37 35 36 40 42 40 40 39 36 35 33 23 13 10 17 24 26 27 30 35 40 42 42 45 42 41 41 30 23 41 53 33 25 52 70 61 58 64 64 65 67 65 62 62 62 61 58 55 54 54
50 50 49 49 48 46 48 50 48 49 49 48 51 52 53 58 57 52 51 51 50 51 51 52 51 48 47 45 47 48 48 46 43 39 36 34 35 37 36 36 36 37 37 37 39 39 35 36 39 37 33 29 31 39 38 34 33 33 36 39 39 41 42 42 40 36 37 42 41 40 51 62 64 65 71 73 69 67 66 63 62 64 63 60 57 54 54 54
49 50 50 50 45 41 45 49 49 50 52 53 54 53 54 56 54 50 52 55 54 52 51 51 50 49 49 48 47 47 49 49 47 43 42 43 45 42 38 39 40 36 34 34 36 37 36 36 40 43 46 45 44 48 48 47 48 46 42 40 38 36 36 39 43 48 48 34 27 44 57 52 50 58 64 66 64 64 64 63 62 63 60 56 54 53 53 55
50 51 52 53 50 46 48 50 51 52 54 54 54 54 54 55 55 54 56 56 54 51 49 49 51 52 52 51 49 48 47 45 43 44 46 48 48 43 39 40 41 38 38 37 35 36 36 36 39 41 43 43 43 44 48 52 55 52 46 43 42 38 36 44 54 57 50 37 39 52 55 49 50 53 57 65 68 66 65 63 63 63 59 54 52 55 58 62
52 51 51 51 53 54 54 53 52 53 53 52 55 56 55 55 57 57 56 55 55 54 51 51 54 54 54 54 53 54 51 46 46 50 52 51 47 44 43 44 43 42 42 41 41 40 37 37 40 42 43 45 47 49 52 55 57 57 52 47 44 42 46 54 57 55 53 53 59 62 58 58 61 62 67 70 66 65 65 62 62 64 62 60 58 59 63 65
52 50 50 50 53 54 54 53 51 51 52 52 56 57 54 55 58 57 57 57 58 57 54 54 56 55 56 57 55 56 57 54 55 57 55 52 50 48 49 47 46 46 45 44 45 46 45 46 47 47 45 48 54 58 59 59 60 59 56 51 47 49 57 59 51 47 49 53 59 58 55 58 63 64 65 62 58 61 62 61 63 63 61 62 61 61 63 62
53 50 48 49 53 56 57 58 56 53 50 50 54 55 54 56 57 56 60 62 61 60 58 59 62 60 58 57 55 57 58 58 58 58 56 56 54 52 53 52 49 47 46 45 43 45 48 48 48 45 40 43 53 58 59 62 61 57 55 55 59 65 67 61 55 55 55 54 53 49 49 57 61 57 55 58 60 61 60 61 62 59 58 60 61 60 60 59
53 52 50 49 53 57 58 60 60 56 53 52 53 53 53 54 52 51 58 60 58 59 59 60 63 64 61 59 58 58 59 59 59 58 56 56 55 54 56 55 52 49 46 43 42 44 45 44 45 41 35 41 52 55 56 53 39 38 53 63 68 73 70 66 68 70 67 63 59 56 59 64 63 58 60 65 63 59 59 61 60 58 60 60 59 59 60 58
Wind_Direction
282 283 283 285 288 290 293 296 298 299 300 301 304 307 310 312 312 313 314 313 311 309 308 308 308 310 312 312 316 317 318 320 323 328 330 335 341 347 360 9 9 10 9 7 5 8 13 14 13 6 2 356 349 342 329 323 308 292 285 265 262 267 262 273 280 280 283 280 288 297 294 295 294 292 291 286 288 287 288 290 287 288 288 285 285 282 279 280
279 280 281 282 283 285 286 287 289 290 291 292 294 296 299 302 302 302 302 302 302 301 298 297 295 296 296 298 301 301 303 302 302 304 299 309 319 323 331 339 347 348 346 347 346 349 352 354 353 347 346 339 336 330 323 323 312 303 291 271 270 271 269 280 286 286 288 287 290 296 297 294 293 296 296 292 295 294 295 301 293 289 289 283 280 278 279 281
275 275 277 278 280 282 281 281 282 283 285 285 286 287 289 291 293 294 293 293 293 293 292 291 289 287 287 289 289 291 292 290 295 291 277 289 301 305 311 315 325 327 325 328 327 333 335 336 336 332 331 327 326 321 315 313 305 301 289 279 275 275 285 294 293 292 292 292 292 294 297 295 294 296 299 298 296 298 306 308 292 286 282 279 280 279 282 284
272 272 272 273 275 277 277 278 278 279 281 281 281 282 282 283 283 285 286 285 285 287 288 287 286 284 282 282 283 284 286 287 290 280 264 281 291 290 297 303 311 311 311 314 313 317 319 322 323 320 320 318 316 312 310 309 302 298 289 284 279 281 291 294 293 294 293 295 294 294 295 295 296 295 300 300 297 308 315 299 286 285 281 282 289 288 286 289
269 269 269 269 271 272 274 274 275 277 278 279 279 279 278 278 277 277 278 279 280 280 283 283 283 282 280 280 278 280 283 285 290 275 260 278 284 281 289 294 300 302 302 303 305 308 307 310 313 312 312 311 310 307 306 306 300 298 295 289 287 289 290 289 292 292 289 291 291 293 294 293 294 294 298 295 295 314 311 296 291 288 284 286 296 297 290 294
267 268 268 268 268 269 270 271 273 274 275 277 278 278 278 278 276 273 273 274 275 275 278 280 280 279 279 277 275 275 273 272 284 279 269 277 276 274 281 285 292 294 294 296 297 300 301 304 307 306 308 308 306 303 303 304 298 296 295 292 292 293 290 290 292 289 287 287 287 289 289 290 291 291 292 289 294 307 297 293 292 289 287 285 292 297 295 295
266 267 267 267 268 268 268 269 271 272 274 275 276 277 278 278 276 274 272 271 272 273 274 276 277 278 277 276 275 272 268 268 277 275 271 271 266 268 274 278 284 284 286 288 288 291 294 299 302 302 304 303 300 299 298 299 295 293 290 290 293 292 290 291 291 290 288 286 286 286 285 287 288 288 286 288 297 302 294 290 287 287 288 284 287 293 293 292
265 265 266 266 267 267 268 268 269 270 272 273 274 276 276 277 276 274 272 270 270 271 272 274 275 276 275 276 275 271 271 271 270 268 265 263 260 263 269 275 276 276 277 276 278 283 288 294 297 298 297 293 291 293 296 297 293 292 290 289 291 289 288 287 287 289 288 287 287 286 286 286 287 285 284 291 301 298 292 288 285 287 288 286 287 287 288 289
263 264 265 265 266 266 267 267 268 269 270 271 272 273 273 274 274 273 272 270 269 268 270 272 273 275 273 274 273 272 274 270 263 262 259 257 257 259 267 271 270 270 267 265 268 275 283 289 291 294 292 291 291 290 295 293 288 291 293 291 291 288 285 283 285 287 286 287 288 288 290 288 287 285 287 299 304 296 289 283 284 288 289 289 286 284 285 285
263 263 264 264 265 266 266 266 266 267 268 269 270 271 271 271 271 271 270 269 268 267 268 269 271 273 272 273 271 270 273 269 262 259 255 255 256 257 264 267 265 265 261 260 264 272 281 285 290 293 291 293 294 292 294 290 287 292 292 290 291 288 284 282 283 285 285 286 286 288 291 290 287 282 292 310 304 290 286 282 283 286 290 290 287 284 282 282
264 263 262 263 264 264 265 265 265 266 266 268 269 270 270 269 269 269 269 268 267 267 267 267 269 270 271 270 268 270 271 266 262 257 253 255 256 257 261 264 264 262 259 261 266 272 279 284 290 291 289 294 295 294 294 291 291 292 290 289 291 288 284 282 282 283 285 284 284 288 289 288 284 281 296 311 299 293 290 288 289 288 289 289 287 285 282 282
266 265 264 263 263 263 264 264 264 264 265 266 267 268 269 269 269 268 268 268 267 267 267 268 269 269 270 266 265 270 268 263 262 258 254 255 257 258 260 263 264 262 261 264 269 275 281 285 289 289 290 291 292 293 294 294 293 291 290 290 291 289 285 284 282 280 280 280 283 289 286 284 284 286 297 301 297 299 295 293 293 291 289 286 286 285 284 283
268 267 266 265 264 264 264 264 264 263 264 264 266 267 269 269 269 270 269 269 269 268 267 268 268 269 269 266 264 266 266 264 263 259 257 256 257 259 261 263 264 262 263 267 273 279 283 286 290 292 293 290 289 292 294 295 293 291 291 291 291 288 286 288 285 280 275 277 285 285 279 282 288 292 296 296 297 298 294 294 293 291 289 287 286 285 284 282
269 269 269 268 267 266 266 266 265 265 264 264 264 266 268 269 269 270 270 270 270 270 270 269 268 268 268 265 263 264 264 264 262 261 259 257 258 260 261 264 265 263 263 268 272 277 283 286 289 292 294 291 291 294 295 296 295 292 289 289 290 285 284 286 284 282 278 279 285 279 274 280 289 293 292 295 300 297 295 295 294 292 291 289 287 284 282 281
269 270 270 270 270 269 268 267 267 267 266 266 266 265 267 268 269 270 271 271 271 272 272 271 270 270 269 265 262 264 264 263 264 263 261 259 259 260 262 265 264 262 262 265 269 274 279 283 285 289 292 292 291 292 293 294 294 293 286 286 288 281 280 282 282 283 281 282 284 277 273 281 290 292 289 294 300 299 297 297 296 297 296 294 291 285 281 279
269 270 270 271 271 271 271 270 269 268 268 268 268 268 268 269 270 271 271 271 272 272 272 272 271 272 271 268 264 264 265 266 266 263 261 260 259 260 262 264 263 262 262 264 268 271 276 281 282 285 288 289 289 290 292 289 286 284 280 283 284 275 273 278 281 284 283 283 283 278 275 280 286 289 290 294 298 299 296 296 298 299 300 298 295 290 285 280
271 271 271 271 271 272 272 272 271 271 270 269 268 269 271 271 272 272 271 272 272 272 272 273 272 272 271 269 267 266 266 267 266 263 262 260 260 261 261 262 263 262 261 263 266 269 274 278 278 281 284 285 286 286 281 275 278 277 274 279 284 279 274 275 279 285 286 285 285 282 279 281 284 287 289 291 296 299 297 296 297 299 302 300 295 292 288 283
271 272 273 273 273 273 273 272 272 272 271 270 270 269 270 272 273 272 272 272 273 273 273 273 272 273 273 270 268 267 265 264 263 262 262 261 261 261 260 260 260 259 259 262 265 267 270 273 274 277 279 279 282 282 272 276 289 287 277 277 282 282 276 277 280 284 287 286 285 283 282 286 290 290 288 289 294 297 298 298 298 301 303 300 296 295 293 288
270 271 273 273 274 275 274 274 274 273 272 271 271 270 271 271 270 271 271 271 271 272 274 274 271 270 270 270 269 268 265 263 260 259 259 261 261 259 259 258 257 257 258 262 266 267 267 269 271 270 271 274 281 285 283 290 295 285 277 275 277 279 278 281 282 282 286 285 285 287 287 290 292 291 291 292 294 294 296 297 300 305 304 299 301 300 296 292
269 269 270 271 273 274 275 276 276 275 274 272 272 272 272 272 273 272 270 269 269 269 270 271 272 270 269 270 270 269 268 265 261 257 256 257 258 258 257 256 258 257 257 264 269 268 266 268 266 265 270 275 279 282 287 292 290 282 280 277 277 278 280 286 288 286 288 285 285 290 291 290 290 291 292 294 294 293 293 296 300 302 298 300 306 302 295 291
269 269 270 270 271 272 273 274 275 276 275 275 273 272 271 272 274 275 274 273 271 269 268 268 270 270 269 270 269 270 271 268 264 258 256 255 255 258 258 258 261 260 259 265 268 267 266 265 264 266 273 276 275 277 282 285 282 280 279 276 277 278 281 289 291 289 291 286 286 291 290 289 290 291 292 294 294 292 293 297 299 292 289 302 307 301 294 291
270 270 270 270 270 271 272 272 272 273 274 274 274 272 272 272 273 275 277 277 274 270 269 268 268 268 268 268 268 269 268 267 265 261 259 258 255 257 260 260 262 263 263 264 266 267 265 263 265 270 274 275 277 278 279 280 276 272 272 272 275 278 284 290 291 291 290 287 288 290 289 288 289 290 292 293 293 294 297 299 292 282 294 304 304 297 293 292
272 273 273 272 271 271 271 271 271 271 271 272 272 273 273 273 274 275 277 278 276 273 271 269 268 268 268 266 266 267 266 266 264 262 260 259 257 256 259 260 261 264 264 262 264 265 265 266 269 272 273 276 278 276 276 277 272 267 268 271 274 280 285 288 290 289 288 288 289 290 290 289 290 291 292 294 294 296 300 292 280 291 302 306 302 297 294 295
272 274 275 275 275 273 271 271 271 271 270 270 271 272 273 274 276 277 279 279 278 275 272 271 270 269 267 267 267 265 265 264 262 261 259 258 258 256 257 260 259 261 261 261 264 265 266 269 271 271 273 275 275 274 275 274 271 268 268 271 275 281 285 284 284 284 287 289 290 293 295 291 292 294 295 298 296 297 299 280 280 299 306 304 303 298 295 295
272 273 274 276 277 277 275 273 271 271 270 270 270 271 272 274 276 279 282 283 281 277 274 273 273 272 269 267 265 264 263 261 260 260 260 257 258 258 258 258 258 259 260 261 264 266 267 268 269 270 272 273 273 273 273 271 270 269 268 272 276 281 283 282 281 283 288 290 289 297 306 292 290 286 288 293 291 294 298 285 285 303 307 302 304 300 294 291
273 274 275 276 276 277 277 276 274 272 271 270 270 270 271 273 276 279 284 285 282 279 278 275 273 272 270 267 266 263 259 260 260 259 257 256 256 257 257 257 256 258 260 262 263 263 265 266 268 270 271 271 270 270 268 266 267 265 266 274 278 279 280 279 281 282 283 282 281 287 294 289 285 279 283 288 290 293 298 293 293 303 306 303 308 303 296 290
272 273 275 276 276 277 276 277 277 274 272 271 271 271 272 274 276 280 288 288 280 278 279 273 267 267 268 269 267 257 252 259 262 257 255 255 254 255 255 256 257 257 258 259 258 261 265 267 269 270 270 269 267 267 265 262 262 261 267 274 276 278 278 279 281 279 278 281 281 279 282 282 279 281 285 288 290 292 295 297 298 304 307 307 309 304 300 295
271 272 273 275 276 276 277 277 277 276 275 273 272 272 272 273 276 280 286 284 271 275 277 261 254 257 258 258 257 250 251 259 259 254 256 256 255 256 256 257 257 258 259 257 254 260 265 268 270 269 268 267 265 265 263 259 259 262 269 273 274 276 277 279 280 278 282 286 280 272 277 276 276 283 289 291 288 286 292 297 299 307 311 309 306 299 303 302
270 271 272 273 274 275 276 277 277 277 276 274 272 272 271 272 276 275 268 256 260 271 265 239 232 236 238 242 246 250 255 258 256 258 262 259 257 258 257 258 256 255 259 258 257 260 263 265 267 265 264 264 264 263 260 258 260 264 269 272 272 274 276 278 279 279 283 280 264 261 262 259 280 284 281 278 280 283 294 298 302 310 311 304 301 299 303 302
271 271 272 272 272 273 274 274 275 276 276 276 274 272 272 273 272 262 244 246 255 271 258 232 229 233 239 243 243 246 252 256 259 263 263 260 260 259 257 257 255 255 259 259 260 262 264 264 262 261 262 262 262 260 259 259 261 265 269 272 275 277 278 279 277 278 281 270 263 265 261 252 274 286 255 256 282 287 294 299 305 310 304 298 307 306 303 297
271 271 271 270 270 271 272 272 272 274 276 276 275 273 272 272 263 241 236 250 256 264 255 236 229 232 236 244 247 247 248 249 254 259 262 262 261 258 255 254 253 254 257 258 261 264 265 262 260 261 261 260 260 258 258 260 262 265 267 271 277 280 279 276 266 260 253 261 266 271 267 246 240 253 265 286 291 283 292 301 302 301 301 305 308 306 299 292
273 272 271 269 269 270 270 270 269 270 273 274 276 272 265 261 248 237 242 254 262 261 250 242 240 236 235 242 246 248 246 245 248 253 259 262 262 260 258 256 254 253 255 260 265 267 265 264 264 263 261 259 258 256 257 260 262 263 262 261 263 269 270 252 221 217 233 255 267 271 263 236 240 252 265 275 271 271 291 300 286 290 304 306 303 297 289 285
272 273 272 269 269 268 267 269 267 267 268 267 268 265 253 238 245 246 244 246 249 248 247 246 243 243 241 237 238 242 241 243 247 251 255 258 259 260 258 255 253 251 252 259 265 267 267 268 265 260 259 259 256 254 256 260 262 262 258 250 236 230 267 258 240 245 247 257 267 262 248 242 254 264 270 273 275 280 290 292 287 296 303 302 293 286 281 284
272 272 271 271 270 267 266 267 266 265 264 259 256 250 230 225 248 251 246 247 250 251 253 254 252 252 251 243 240 240 237 242 250 252 254 254 253 255 255 253 252 251 252 254 257 257 259 266 265 261 261 261 259 257 258 260 261 262 260 252 240 234 238 255 257 256 271 290 286 253 231 252 267 277 284 286 288 287 281 283 293 299 300 297 287 278 281 286
273 272 272 272 271 268 268 269 268 266 263 260 252 234 218 232 248 251 250 251 251 250 253 257 258 256 253 249 246 243 240 244 250 249 250 250 250 254 255 254 253 251 249 247 251 254 250 258 264 263 262 263 262 261 259 256 255 257 255 241 237 243 241 244 257 267 293 312 283 246 246 268 276 280 283 285 285 283 278 280 293 302 300 295 283 276 280 285
273 272 271 271 272 271 271 271 271 269 265 262 249 230 231 243 250 252 255 256 253 253 253 253 254 251 249 249 248 245 241 241 245 246 246 248 250 253 254 256 255 251 249 247 251 255 250 258 266 266 263 263 263 261 259 253 247 247 240 232 243 251 243 240 260 270 278 289 272 262 264 275 282 285 285 283 280 279 277 282 294 303 301 293 284 278 275 284
270 270 270 271 271 271 271 271 270 266 263 256 243 241 248 252 252 252 255 257 257 258 254 248 251 251 249 249 251 250 243 238 241 242 243 247 250 251 252 255 257 254 254 254 253 256 257 261 268 268 265 263 263 261 258 251 243 237 237 244 252 252 240 237 258 276 264 259 271 270 271 278 279 282 286 282 273 274 275 285 300 304 299 293 287 277 274 289
267 271 271 272 273 273 272 270 266 263 257 247 240 249 256 255 255 253 252 255 258 261 254 247 251 254 253 252 254 255 246 237 238 240 241 245 251 255 253 254 257 258 260 258 253 254 256 258 266 267 264 262 261 256 247 244 240 239 245 249 246 237 225 225 223 251 258 246 273 274 276 276 270 269 278 277 270 271 273 287 303 305 301 296 290 279 279 291
264 268 268 269 271 273 270 266 263 258 250 240 239 248 253 254 255 252 250 254 257 258 255 250 251 253 255 254 251 254 251 242 241 242 243 245 250 258 258 255 258 260 260 256 252 255 254 252 259 262 260 258 254 246 239 239 240 237 240 242 240 235 222 216 214 225 246 243 262 276 282 277 274 272 273 275 274 264 266 294 303 303 298 294 290 282 281 288
262 262 263 265 267 268 269 266 258 251 246 244 246 251 254 255 253 250 250 254 255 256 256 254 251 249 252 255 251 251 253 249 246 246 248 250 253 259 261 260 259 261 260 256 254 254 249 244 249 255 254 246 243 244 245 248 248 240 234 235 237 233 225 229 234 231 233 239 259 268 275 271 274 277 266 269 275 255 271 295 299 298 291 287 286 281 284 290
261 259 261 264 265 265 266 258 247 244 245 249 254 257 257 257 257 256 256 257 258 258 256 254 253 250 251 254 253 251 250 249 250 249 250 253 254 256 260 262 262 261 260 254 250 247 242 238 241 245 247 248 251 257 259 260 259 254 249 247 247 242 232 231 241 236 233 230 242 244 256 265 267 270 270 261 247 257 278 288 291 291 288 283 282 285 290 291
257 254 258 262 261 262 263 255 247 247 248 251 257 260 260 260 262 263 264 264 265 262 259 258 258 255 254 254 254 253 251 251 252 251 251 253 256 258 261 265 266 265 263 257 255 256 250 241 236 239 246 252 259 263 263 261 259 255 254 253 253 249 238 229 226 237 235 230 240 244 248 262 264 266 266 260 258 270 280 283 285 286 285 284 287 291 292 288
258 256 260 262 258 258 260 253 246 246 249 256 261 261 261 261 260 263 267 268 269 268 265 263 263 261 260 258 256 253 252 252 252 252 253 256 258 259 262 265 267 267 265 261 259 258 248 233 230 241 249 253 258 261 262 263 257 246 246 248 246 243 240 238 237 242 245 233 238 243 234 259 266 268 266 266 270 275 279 281 283 284 285 288 292 292 289 286
268 267 268 269 267 266 264 255 247 248 254 259 261 261 261 260 259 264 268 270 272 272 268 267 268 265 262 261 257 254 253 254 254 254 254 256 259 261 262 265 266 265 264 261 258 256 246 232 229 240 254 256 258 259 259 260 255 245 247 250 247 244 243 242 241 242 250 246 243 246 242 257 265 270 270 271 275 277 280 282 284 285 286 289 292 292 289 288
272 272 273 273 272 269 265 263 259 258 259 259 262 265 266 263 263 266 268 270 274 273 268 267 268 266 262 258 256 255 253 252 255 258 256 256 258 261 261 261 262 264 265 263 259 256 253 246 236 232 237 239 245 250 253 262 262 251 249 251 251 248 243 240 239 236 242 247 244 244 253 257 262 268 270 272 275 277 281 284 284 285 286 290 292 292 290 289
269 268 268 270 270 265 264 266 261 256 259 262 264 266 266 264 265 266 264 266 272 274 268 263 262 262 260 257 255 256 256 253 251 251 252 252 251 253 258 261 261 263 267 265 259 253 252 251 246 243 243 242 246 251 256 268 275 267 261 260 257 254 250 243 238 234 239 246 246 246 252 257 261 266 270 273 275 277 279 280 282 283 286 289 291 290 289 288
263 262 262 264 264 256 252 256 255 253 259 261 259 261 264 266 267 264 259 262 269 272 267 261 259 257 257 257 255 255 258 257 253 249 249 252 254 257 264 269 269 268 266 263 260 253 247 246 247 248 248 247 250 256 259 264 269 268 269 268 263 260 254 242 238 242 245 248 252 252 254 259 262 266 271 275 276 277 278 279 283 285 285 287 287 286 286 286
258 257 260 262 261 252 244 248 254 259 261 258 255 258 260 261 261 261 262 266 269 266 261 258 259 259 260 261 257 254 257 258 256 257 257 258 260 264 270 274 276 274 265 257 254 252 248 247 247 248 250 250 250 254 258 260 264 266 267 267 265 262 256 249 250 253 251 248 253 257 259 263 265 268 272 274 275 277 280 284 286 286 284 283 281 281 285 288
257 256 257 258 258 258 256 257 262 265 265 260 255 254 255 256 259 263 268 269 266 263 260 257 260 263 265 265 260 254 255 257 260 266 269 266 264 267 272 275 276 275 268 259 251 248 250 252 251 251 255 256 254 253 255 256 259 261 261 262 264 265 261 259 259 260 258 256 259 261 263 265 268 270 270 272 276 279 281 285 284 283 283 282 280 282 286 289
258 256 254 253 253 254 257 258 258 260 262 259 254 252 254 257 262 267 269 267 263 263 262 260 264 267 267 266 262 256 259 265 268 271 271 267 265 269 273 276 278 275 269 262 253 247 248 251 252 255 258 258 255 254 253 251 252 255 258 260 263 262 261 261 262 262 260 259 260 262 262 264 269 274 275 279 284 283 282 283 281 282 286 286 284 286 288 290
259 255 250 248 250 251 253 255 256 256 258 256 253 254 254 256 263 269 269 268 267 266 265 266 270 272 270 266 261 259 265 269 269 270 271 268 268 272 274 274 276 273 266 263 258 252 251 252 251 251 251 251 251 252 251 250 251 254 258 259 257 254 254 257 259 258 257 258 261 262 259 262 273 284 287 286 284 282 282 282 282 286 290 289 288 289 290 290
260 258 252 246 247 249 250 253 254 254 256 256 256 258 257 258 265 269 266 266 267 267 268 269 270 270 268 264 262 267 273 274 273 274 276 275 273 271 268 266 267 267 264 264 263 259 254 249 244 242 241 245 249 250 252 253 253 252 252 253 253 252 253 255 255 256 257 257 258 259 259 264 275 284 284 281 281 282 283 282 283 287 290 289 288 288 288 289
Height
3193 3193 3193 3192 3192 3192 3192 3192 3192 3192 3192 3192 3191 3191 3191 3190 3190 3189 3189 3188 3188 3187 3187 3186 3186 3185 3185 3185 3184 3184 3183 3183 3182 3182 3181 3181 3180 3179 3178 3178 3177 3177 3177 3177 3176 3176 3175 3175 3175 3174 3174 3173 3173 3172 3172 3172 3171 3171 3170 3170 3170 3169 3169 3166 3165 3164 3163 3162 3160 3159 3159 3158 3157 3156 3156 3156 3155 3155 3154 3154 3153 3152 3152 3150 3150 3149 3147 3148
3192 3192 3192 3192 3191 3191 3191 3191 3191 3191 3191 3191 3191 3190 3190 3190 3189 3189 3188 3188 3187 3187 3186 3186 3185 3185 3184 3184 3184 3183 3182 3182 3181 3181 3180 3180 3179 3179 3178 3178 3177 3177 3177 3176 3176 3175 3175 3174 3174 3174 3173 3173 3172 3172 3171 3171 3170 3170 3169 3169 3168 3168 3166 3165 3164 3163 3161 3161 3159 3157 3157 3157 3155 3154 3154 3154 3153 3153 3152 3151 3151 3150 3149 3148 3147 3147 3145 3145
3191 3191 3191 3191 3190 3190 3190 3190 3190 3190 3190 3190 3190 3189 3189 3189 3188 3188 3188 3187 3187 3186 3185 3185 3185 3184 3184 3183 3183 3182 3182 3181 3180 3180 3180 3179 3179 3178 3178 3177 3177 3176 3176 3176 3176 3175 3175 3174 3173 3173 3172 3172 3171 3171 3170 3170 3169 3168 3168 3167 3166 3165 3164 3162 3161 3161 3159 3159 3157 3156 3155 3155 3154 3153 3152 3152 3151 3151 3150 3149 3148 3147 3147 3145 3144 3144 3143 3143
3190 3190 3190 3190 3189 3189 3189 3189 3189 3188 3188 3188 3188 3188 3188 3188 3187 3187 3186 3186 3186 3185 3185 3184 3184 3183 3183 3182 3182 3181 3181 3180 3179 3179 3179 3178 3178 3177 3177 3176 3176 3176 3175 3175 3175 3175 3174 3174 3173 3172 3172 3171 3170 3169 3169 3168 3167 3167 3166 3165 3164 3163 3162 3160 3159 3158 3157 3157 3156 3155 3154 3153 3153 3151 3150 3150 3149 3149 3148 3147 3146 3145 3145 3143 3142 3142 3141 3140
3189 3189 3189 3188 3188 3188 3188 3187 3187 3187 3187 3187 3187 3187 3186 3186 3186 3186 3185 3185 3185 3184 3184 3183 3183 3182 3181 3181 3181 3180 3180 3179 3178 3178 3178 3177 3177 3177 3176 3176 3175 3175 3174 3174 3174 3173 3173 3173 3172 3172 3171 3170 3169 3168 3167 3167 3166 3164 3164 3163 3162 3161 3160 3158 3157 3157 3155 3155 3154 3153 3152 3151 3151 3150 3149 3148 3147 3148 3147 3145 3145 3144 3143 3141 3140 3140 3139 3138
3188 3187 3187 3187 3187 3187 3186 3186 3186 3185 3185 3185 3185 3185 3185 3185 3184 3184 3184 3184 3183 3183 3182 3182 3181 3181 3180 3180 3179 3179 3179 3178 3177 3177 3177 3176 3176 3176 3175 3175 3174 3173 3173 3173 3172 3172 3172 3171 3171 3170 3170 3169 3168 3167 3166 3165 3164 3163 3161 3161 3160 3159 3158 3156 3155 3154 3153 3152 3152 3151 3150 3149 3148 3148 3147 3146 3145 3147 3146 3144 3143 3142 3141 3140 3138 3138 3137 3136
3186 3186 3186 3185 3185 3185 3185 3185 3184 3184 3184 3183 3183 3183 3183 3183 3183 3182 3182 3182 3182 3182 3181 3180 3180 3179 3179 3178 3178 3177 3177 3177 3176 3176 3176 3175 3175 3175 3174 3173 3173 3172 3172 3172 3171 3171 3170 3170 3169 3169 3168 3167 3167 3165 3164 3163 3162 3161 3160 3158 3157 3157 3155 3154 3153 3152 3151 3150 3149 3149 3148 3147 3146 3145 3144 3143 3144 3145 3143 3142 3141 3139 3139 3138 3137 3136 3135 3134
3185 3185 3184 3184 3184 3184 3184 3183 3183 3183 3182 3182 3182 3181 3181 3181 3181 3181 3181 3180 3180 3180 3179 3179 3178 3178 3177 3177 3176 3175 3175 3176 3175 3174 3174 3174 3174 3173 3173 3172 3172 3171 3171 3170 3170 3169 3169 3168 3168 3167 3166 3166 3165 3164 3163 3162 3160 3158 3158 3156 3155 3154 3153 3152 3150 3150 3148 3147 3147 3145 3145 3145 3143 3142 3141 3141 3142 3142 3141 3139 3138 3137 3136 3135 3134 3134 3133 3132
3184 3183 3183 3183 3182 3182 3182 3182 3182 3181 3181 3181 3180 3180 3179 3179 3179 3179 3179 3179 3178 3178 3178 3177 3177 3176 3176 3175 3174 3173 3173 3174 3173 3173 3173 3173 3172 3172 3171 3171 3170 3170 3169 3169 3168 3168 3167 3167 3166 3166 3165 3164 3163 3162 3161 3160 3158 3156 3155 3154 3153 3152 3151 3150 3148 3148 3146 3145 3144 3142 3142 3142 3141 3139 3137 3138 3140 3139 3138 3136 3135 3134 3133 3132 3131 3130 3130 3129
3182 3182 3181 3181 3181 3181 3180 3180 3180 3180 3180 3179 3179 3178 3178 3177 3177 3177 3177 3176 3176 3176 3176 3175 3175 3174 3174 3173 3172 3171 3172 3172 3171 3171 3171 3171 3171 3170 3170 3169 3168 3168 3168 3167 3167 3166 3166 3165 3165 3164 3163 3162 3161 3160 3159 3158 3156 3155 3153 3151 3151 3150 3148 3147 3146 3145 3144 3143 3141 3140 3139 3138 3137 3136 3134 3135 3137 3136 3135 3134 3132 3131 3130 3129 3128 3127 3126 3126
3180 3180 3180 3179 3179 3179 3178 3178 3178 3178 3178 3177 3177 3176 3176 3175 3175 3175 3174 3174 3174 3174 3173 3173 3173 3172 3172 3171 3170 3170 3171 3170 3170 3170 3169 3169 3169 3168 3168 3167 3167 3166 3166 3166 3165 3165 3165 3164 3163 3163 3161 3160 3159 3158 3157 3155 3154 3153 3151 3149 3148 3147 3145 3144 3144 3143 3141 3140 3139 3138 3136 3134 3133 3132 3132 3133 3133 3132 3131 3130 3129 3128 3127 3126 3124 3123 3122 3122
3178 3178 3178 3178 3177 3177 3177 3176 3176 3176 3176 3176 3175 3175 3174 3173 3173 3173 3172 3172 3172 3171 3171 3171 3170 3170 3169 3168 3168 3168 3169 3168 3168 3168 3167 3167 3167 3166 3166 3165 3165 3164 3164 3164 3164 3164 3163 3162 3162 3161 3159 3158 3157 3155 3154 3153 3152 3150 3149 3146 3145 3144 3141 3140 3141 3140 3139 3137 3137 3136 3132 3129 3128 3128 3130 3131 3129 3129 3127 3126 3126 3125 3124 3123 3121 3120 3118 3118
3176 3176 3176 3176 3176 3175 3175 3174 3174 3174 3174 3174 3173 3173 3172 3171 3171 3170 3170 3170 3169 3169 3169 3168 3168 3167 3166 3166 3166 3167 3166 3166 3166 3166 3165 3165 3165 3164 3164 3163 3163 3163 3162 3162 3162 3162 3161 3160 3160 3158 3157 3156 3154 3153 3151 3150 3149 3147 3146 3144 3142 3140 3137 3136 3137 3136 3136 3134 3134 3133 3128 3125 3125 3124 3125 3127 3127 3126 3124 3122 3122 3122 3121 3119 3118 3116 3115 3114
3174 3174 3174 3174 3174 3173 3173 3173 3172 3172 3172 3172 3172 3171 3170 3169 3169 3168 3168 3167 3167 3166 3166 3166 3165 3165 3164 3163 3164 3164 3164 3164 3164 3163 3164 3163 3162 3162 3162 3161 3161 3161 3161 3160 3160 3160 3159 3158 3157 3156 3155 3153 3151 3150 3149 3147 3145 3144 3143 3140 3139 3137 3134 3133 3133 3133 3133 3131 3131 3130 3124 3121 3123 3122 3120 3122 3123 3123 3121 3119 3118 3118 3117 3115 3115 3113 3111 3110
3170 3171 3171 3171 3171 3171 3171 3171 3170 3170 3170 3170 3170 3169 3168 3167 3166 3166 3165 3164 3164 3164 3163 3163 3162 3162 3160 3160 3161 3161 3161 3161 3161 3162 3161 3160 3160 3160 3159 3159 3159 3159 3158 3158 3157 3157 3156 3156 3155 3153 3151 3150 3149 3148 3146 3144 3142 3141 3140 3137 3136 3135 3132 3130 3130 3130 3130 3128 3128 3127 3120 3117 3120 3121 3117 3116 3118 3119 3118 3116 3114 3113 3113 3111 3109 3108 3106 3105
3167 3168 3168 3168 3168 3168 3168 3168 3168 3168 3168 3168 3168 3167 3166 3165 3164 3164 3162 3162 3162 3161 3160 3159 3159 3159 3157 3157 3159 3159 3159 3159 3159 3159 3158 3158 3157 3157 3157 3157 3156 3156 3156 3155 3155 3154 3154 3153 3152 3150 3148 3147 3146 3145 3145 3143 3140 3139 3137 3134 3134 3132 3131 3129 3126 3126 3127 3125 3124 3122 3117 3114 3116 3119 3117 3112 3112 3114 3114 3112 3111 3110 3109 3107 3104 3102 3102 3101
3164 3164 3164 3165 3165 3165 3165 3165 3165 3165 3165 3165 3165 3165 3164 3162 3162 3161 3160 3159 3158 3158 3157 3156 3156 3155 3154 3154 3155 3156 3156 3157 3156 3156 3155 3155 3154 3154 3154 3154 3153 3153 3153 3152 3152 3151 3151 3150 3149 3148 3146 3144 3144 3143 3143 3141 3139 3138 3135 3132 3131 3130 3129 3127 3123 3122 3122 3121 3119 3117 3112 3110 3112 3115 3115 3111 3108 3107 3108 3108 3107 3107 3106 3104 3100 3096 3096 3095
3161 3161 3161 3161 3162 3162 3162 3162 3162 3162 3162 3162 3162 3162 3161 3160 3159 3157 3156 3156 3155 3155 3153 3152 3153 3152 3150 3151 3152 3152 3153 3153 3153 3153 3152 3152 3151 3151 3151 3151 3150 3150 3149 3149 3148 3148 3148 3147 3146 3145 3143 3141 3140 3141 3140 3138 3137 3137 3135 3131 3129 3128 3126 3125 3122 3119 3118 3116 3115 3113 3107 3104 3106 3108 3110 3110 3108 3103 3101 3102 3102 3103 3102 3099 3096 3093 3091 3090
3157 3157 3158 3158 3158 3158 3158 3158 3159 3158 3159 3159 3159 3159 3158 3157 3155 3154 3153 3152 3152 3151 3150 3149 3149 3149 3148 3148 3149 3149 3150 3150 3149 3150 3149 3149 3148 3148 3148 3147 3147 3147 3146 3145 3145 3145 3144 3143 3143 3141 3138 3137 3138 3137 3135 3135 3135 3134 3132 3130 3127 3125 3122 3122 3121 3117 3115 3112 3109 3108 3103 3100 3101 3101 3103 3105 3106 3102 3098 3097 3097 3097 3097 3094 3092 3090 3087 3085
3153 3153 3154 3154 3154 3155 3155 3154 3155 3155 3155 3155 3156 3156 3155 3153 3152 3150 3149 3148 3148 3148 3148 3145 3144 3145 3145 3145 3146 3146 3146 3146 3146 3146 3146 3145 3145 3144 3144 3144 3143 3143 3142 3142 3142 3141 3141 3140 3138 3136 3135 3136 3136 3134 3132 3132 3132 3130 3128 3126 3124 3122 3118 3118 3118 3113 3112 3109 3104 3103 3099 3095 3095 3095 3097 3099 3100 3098 3095 3094 3093 3093 3092 3091 3089 3087 3084 3082
3150 3150 3149 3150 3150 3151 3150 3150 3151 3151 3151 3151 3152 3152 3151 3150 3148 3146 3144 3143 3143 3144 3143 3142 3141 3141 3141 3142 3143 3143 3143 3142 3142 3143 3142 3142 3142 3141 3140 3140 3140 3139 3139 3140 3138 3136 3137 3135 3131 3132 3133 3134 3134 3132 3131 3129 3128 3127 3125 3123 3121 3119 3114 3115 3115 3110 3108 3104 3100 3100 3095 3089 3090 3090 3091 3093 3093 3092 3092 3091 3090 3089 3089 3087 3086 3084 3081 3079
3146 3146 3146 3146 3146 3147 3146 3146 3146 3147 3147 3147 3148 3147 3146 3146 3145 3143 3141 3137 3136 3138 3138 3137 3137 3136 3138 3138 3138 3139 3138 3137 3137 3138 3139 3139 3138 3138 3136 3136 3136 3135 3135 3136 3134 3132 3131 3128 3127 3131 3131 3130 3130 3129 3128 3126 3125 3123 3122 3120 3118 3116 3112 3112 3112 3107 3104 3100 3096 3095 3089 3082 3084 3085 3085 3086 3086 3086 3086 3087 3086 3086 3085 3084 3083 3081 3077 3076
3142 3142 3142 3142 3143 3143 3142 3142 3142 3143 3143 3143 3143 3143 3142 3142 3141 3140 3138 3131 3128 3131 3132 3132 3132 3132 3133 3133 3134 3135 3132 3132 3133 3133 3136 3135 3133 3134 3131 3131 3133 3131 3130 3131 3130 3127 3124 3123 3126 3128 3128 3126 3125 3125 3125 3122 3120 3119 3119 3117 3114 3113 3112 3109 3107 3104 3101 3097 3092 3090 3082 3074 3076 3077 3077 3079 3079 3080 3082 3082 3083 3082 3081 3081 3079 3077 3073 3072
3139 3139 3139 3139 3140 3140 3138 3138 3138 3139 3139 3139 3139 3139 3138 3138 3137 3136 3134 3126 3119 3121 3125 3125 3125 3126 3128 3128 3130 3130 3127 3127 3127 3128 3132 3130 3128 3130 3127 3127 3129 3126 3125 3126 3125 3121 3119 3121 3123 3123 3123 3123 3121 3120 3121 3119 3116 3115 3116 3114 3111 3111 3111 3108 3105 3101 3097 3094 3089 3086 3077 3065 3067 3069 3067 3071 3072 3073 3077 3078 3079 3079 3078 3077 3075 3074 3071 3069
3136 3136 3136 3136 3136 3136 3135 3134 3134 3135 3135 3135 3135 3135 3135 3134 3134 3133 3130 3122 3109 3109 3117 3119 3119 3120 3121 3123 3124 3124 3123 3120 3121 3124 3126 3125 3124 3124 3122 3123 3123 3120 3120 3123 3121 3114 3114 3117 3118 3118 3119 3119 3117 3115 3117 3116 3111 3110 3111 3111 3109 3108 3108 3106 3103 3099 3096 3093 3087 3087 3078 3057 3058 3065 3062 3065 3067 3067 3072 3073 3073 3074 3073 3073 3071 3070 3069 3066
3132 3133 3133 3133 3133 3133 3132 3131 3132 3132 3131 3132 3132 3132 3132 3131 3132 3131 3128 3119 3101 3097 3107 3111 3112 3112 3113 3116 3118 3120 3117 3113 3117 3120 3119 3119 3119 3118 3117 3116 3116 3116 3116 3118 3116 3108 3108 3112 3113 3114 3115 3114 3113 3110 3112 3112 3108 3105 3105 3107 3107 3105 3104 3102 3101 3098 3094 3091 3085 3088 3086 3058 3046 3057 3059 3061 3063 3062 3066 3068 3067 3069 3068 3068 3068 3065 3064 3063
3128 3129 3129 3129 3129 3130 3129 3128 3129 3128 3128 3129 3128 3129 3129 3128 3129 3129 3127 3117 3095 3089 3098 3102 3104 3106 3107 3110 3112 3113 3110 3107 3112 3114 3112 3114 3114 3113 3113 3110 3111 3112 3112 3114 3110 3102 3103 3107 3109 3110 3110 3109 3108 3106 3107 3109 3106 3100 3101 3104 3103 3102 3101 3098 3098 3096 3091 3089 3082 3083 3091 3067 3039 3044 3053 3056 3060 3058 3060 3063 3062 3064 3064 3063 3063 3061 3060 3060
3124 3125 3125 3126 3126 3126 3126 3126 3126 3125 3126 3126 3125 3126 3125 3126 3127 3127 3129 3117 3092 3084 3092 3095 3098 3100 3103 3105 3106 3107 3105 3104 3108 3108 3108 3110 3109 3109 3108 3106 3108 3107 3108 3109 3102 3098 3100 3103 3104 3105 3105 3104 3102 3102 3104 3106 3102 3097 3098 3100 3099 3099 3097 3095 3095 3093 3089 3087 3078 3075 3087 3072 3037 3034 3046 3048 3053 3055 3054 3058 3058 3059 3059 3058 3058 3058 3057 3057
3120 3121 3122 3122 3122 3122 3123 3123 3122 3122 3123 3122 3123 3123 3122 3124 3123 3124 3128 3112 3087 3082 3090 3092 3094 3097 3099 3102 3102 3103 3102 3102 3104 3104 3106 3107 3105 3105 3103 3103 3105 3101 3102 3102 3096 3095 3098 3098 3099 3099 3100 3099 3098 3100 3101 3101 3098 3095 3096 3095 3096 3095 3093 3093 3091 3090 3090 3082 3070 3069 3081 3073 3039 3028 3040 3042 3045 3050 3050 3053 3054 3055 3055 3054 3053 3053 3053 3053
3116 3116 3117 3118 3118 3119 3119 3119 3119 3119 3119 3119 3119 3119 3120 3120 3120 3123 3119 3098 3083 3085 3087 3087 3091 3094 3096 3098 3098 3099 3099 3100 3100 3100 3102 3102 3102 3101 3099 3100 3101 3097 3097 3096 3091 3093 3094 3093 3094 3094 3095 3094 3095 3097 3096 3096 3094 3093 3094 3092 3093 3092 3089 3092 3087 3088 3090 3072 3059 3063 3071 3073 3048 3027 3034 3038 3038 3044 3046 3049 3050 3050 3051 3050 3050 3049 3048 3048
3112 3112 3113 3114 3114 3115 3115 3115 3116 3115 3116 3116 3115 3116 3117 3116 3118 3117 3099 3082 3082 3085 3083 3084 3087 3089 3092 3093 3094 3095 3096 3096 3096 3096 3097 3097 3097 3096 3095 3096 3097 3095 3094 3091 3088 3090 3090 3087 3088 3089 3090 3090 3091 3093 3091 3091 3091 3090 3091 3090 3091 3090 3087 3088 3085 3088 3086 3063 3052 3057 3061 3066 3049 3028 3031 3035 3034 3038 3042 3046 3047 3047 3048 3047 3046 3044 3043 3044
3108 3107 3108 3109 3110 3111 3111 3111 3111 3112 3112 3111 3112 3112 3112 3113 3110 3097 3081 3079 3085 3080 3078 3082 3083 3084 3088 3088 3088 3090 3091 3090 3091 3092 3092 3093 3092 3090 3090 3091 3092 3093 3090 3086 3085 3086 3083 3081 3083 3085 3085 3087 3088 3088 3087 3087 3087 3087 3087 3089 3091 3089 3086 3085 3082 3081 3075 3057 3051 3056 3057 3053 3034 3024 3032 3035 3034 3035 3037 3042 3044 3044 3045 3043 3041 3040 3040 3040
3103 3103 3102 3103 3105 3107 3107 3106 3107 3107 3106 3107 3108 3106 3109 3109 3092 3075 3074 3081 3080 3074 3075 3079 3079 3081 3083 3081 3082 3084 3086 3085 3086 3088 3088 3087 3085 3083 3085 3086 3087 3088 3086 3084 3083 3082 3078 3075 3078 3079 3079 3083 3083 3082 3083 3081 3081 3082 3081 3085 3086 3086 3085 3081 3076 3071 3062 3053 3052 3054 3054 3042 3025 3023 3029 3030 3033 3034 3033 3037 3040 3040 3041 3039 3037 3036 3036 3036
3099 3098 3096 3096 3098 3099 3101 3101 3101 3102 3101 3100 3101 3100 3103 3096 3073 3065 3071 3073 3073 3074 3074 3075 3077 3078 3077 3076 3076 3079 3081 3081 3081 3084 3082 3081 3079 3077 3078 3079 3082 3083 3083 3082 3080 3078 3076 3070 3069 3073 3075 3077 3076 3077 3079 3076 3076 3076 3076 3080 3079 3079 3081 3076 3069 3063 3056 3052 3051 3051 3047 3033 3022 3022 3023 3024 3028 3031 3031 3033 3034 3035 3036 3034 3033 3032 3032 3032
3093 3093 3092 3090 3089 3091 3094 3094 3095 3097 3096 3093 3094 3094 3092 3079 3064 3065 3068 3066 3070 3073 3072 3073 3075 3074 3072 3070 3071 3074 3077 3076 3076 3078 3076 3073 3073 3071 3072 3073 3076 3079 3079 3079 3075 3074 3073 3065 3063 3068 3070 3071 3072 3073 3075 3074 3072 3070 3072 3075 3073 3072 3075 3070 3063 3059 3058 3056 3048 3043 3037 3025 3021 3020 3019 3021 3023 3025 3028 3029 3030 3031 3030 3030 3029 3028 3029 3028
3086 3086 3087 3084 3081 3084 3088 3088 3090 3091 3089 3087 3087 3083 3077 3067 3063 3067 3066 3065 3068 3069 3070 3072 3071 3069 3067 3065 3066 3069 3072 3072 3070 3071 3069 3068 3067 3066 3065 3066 3070 3073 3073 3072 3072 3071 3068 3063 3061 3064 3064 3066 3068 3068 3070 3070 3068 3065 3066 3066 3064 3067 3069 3067 3062 3058 3061 3057 3042 3034 3029 3021 3020 3015 3010 3016 3018 3019 3023 3025 3027 3027 3025 3026 3025 3024 3026 3025
3079 3078 3079 3078 3077 3078 3081 3084 3084 3083 3082 3079 3075 3071 3066 3060 3063 3067 3065 3064 3065 3066 3069 3069 3065 3064 3063 3060 3060 3062 3066 3067 3064 3064 3064 3063 3059 3057 3059 3061 3063 3066 3067 3068 3069 3069 3066 3061 3059 3059 3059 3061 3063 3064 3064 3063 3061 3060 3060 3059 3060 3063 3064 3065 3064 3059 3058 3053 3037 3030 3027 3021 3019 3011 3004 3009 3013 3014 3018 3020 3021 3021 3021 3021 3020 3021 3022 3022
3074 3072 3070 3071 3072 3073 3076 3077 3076 3075 3073 3069 3065 3063 3058 3054 3059 3064 3061 3061 3063 3064 3066 3064 3061 3060 3059 3058 3055 3055 3060 3061 3059 3059 3060 3057 3052 3048 3053 3056 3056 3059 3063 3065 3065 3065 3064 3060 3057 3055 3054 3056 3060 3060 3056 3054 3055 3055 3055 3055 3056 3058 3059 3060 3062 3057 3055 3050 3036 3028 3024 3016 3010 3007 3005 3005 3007 3009 3012 3014 3015 3016 3016 3017 3016 3018 3018 3018
3070 3066 3062 3065 3068 3068 3071 3070 3068 3067 3063 3059 3057 3055 3051 3049 3054 3057 3056 3057 3060 3061 3060 3058 3058 3057 3055 3055 3054 3052 3053 3054 3054 3055 3054 3051 3046 3042 3046 3051 3051 3054 3058 3060 3059 3059 3060 3057 3053 3049 3049 3052 3054 3051 3047 3047 3050 3051 3050 3051 3051 3052 3053 3053 3053 3050 3048 3044 3035 3030 3023 3005 2997 3003 3006 3003 3002 3005 3006 3007 3009 3010 3011 3012 3013 3014 3014 3015
3065 3059 3054 3060 3064 3063 3065 3062 3059 3057 3052 3050 3051 3049 3048 3047 3048 3051 3052 3053 3055 3056 3055 3054 3055 3054 3051 3050 3051 3050 3049 3047 3049 3050 3048 3046 3043 3039 3040 3044 3047 3049 3052 3054 3053 3054 3054 3052 3048 3044 3045 3046 3043 3040 3040 3041 3043 3044 3044 3045 3044 3045 3048 3048 3045 3042 3040 3038 3034 3033 3022 2998 2989 2999 3003 3001 3001 3002 3003 3003 3003 3005 3007 3007 3009 3009 3010 3011
3059 3052 3048 3056 3057 3057 3060 3053 3047 3047 3044 3044 3045 3044 3044 3045 3044 3046 3048 3049 3050 3050 3050 3050 3050 3049 3048 3047 3046 3046 3045 3043 3043 3044 3041 3039 3038 3036 3036 3038 3043 3045 3046 3046 3046 3046 3046 3044 3042 3041 3038 3035 3032 3034 3037 3037 3037 3036 3035 3036 3036 3038 3043 3043 3037 3033 3033 3033 3029 3029 3018 2994 2986 2996 3000 3000 3000 2999 3000 3000 3000 3002 3003 3003 3004 3004 3005 3006
3051 3045 3044 3049 3048 3049 3051 3043 3038 3040 3037 3036 3038 3038 3040 3042 3042 3043 3044 3044 3044 3044 3045 3044 3044 3044 3043 3043 3042 3042 3041 3038 3037 3037 3034 3032 3033 3034 3034 3036 3039 3040 3041 3040 3038 3040 3040 3037 3036 3034 3031 3030 3030 3032 3033 3031 3031 3030 3029 3030 3031 3032 3033 3032 3029 3027 3028 3027 3024 3022 3011 2987 2980 2993 2999 2996 2995 2997 2997 2996 2996 2998 2999 2998 2999 2999 3000 3001
3044 3041 3040 3041 3040 3043 3044 3035 3032 3032 3029 3030 3033 3034 3037 3038 3036 3038 3038 3038 3039 3039 3039 3038 3038 3038 3037 3038 3038 3037 3036 3033 3030 3030 3029 3028 3030 3031 3033 3035 3035 3035 3035 3034 3033 3035 3035 3031 3031 3030 3029 3030 3029 3028 3027 3024 3025 3024 3022 3024 3024 3023 3023 3023 3024 3024 3023 3020 3017 3012 3002 2983 2976 2988 2995 2991 2990 2993 2994 2992 2992 2993 2993 2993 2993 2994 2994 2994
3038 3036 3034 3033 3033 3034 3033 3029 3027 3025 3024 3027 3028 3029 3032 3032 3031 3033 3032 3032 3034 3035 3033 3031 3032 3032 3032 3032 3032 3032 3032 3029 3025 3025 3026 3025 3026 3027 3029 3032 3031 3030 3030 3030 3028 3029 3028 3025 3027 3029 3029 3029 3027 3023 3019 3017 3018 3017 3016 3018 3018 3017 3020 3020 3020 3021 3016 3011 3007 3001 2992 2980 2976 2984 2989 2988 2987 2987 2987 2988 2988 2988 2988 2988 2987 2988 2989 2988
3032 3030 3028 3028 3028 3026 3022 3022 3023 3021 3021 3024 3023 3023 3026 3024 3025 3028 3027 3027 3029 3029 3028 3025 3025 3026 3027 3027 3025 3024 3025 3025 3022 3021 3022 3023 3021 3022 3024 3026 3026 3025 3025 3026 3025 3024 3023 3020 3022 3024 3023 3023 3020 3015 3013 3014 3014 3013 3013 3014 3014 3015 3017 3015 3016 3016 3006 2996 2997 2995 2984 2975 2978 2984 2984 2982 2983 2983 2982 2983 2983 2982 2982 2982 2982 2982 2982 2981
3027 3024 3023 3023 3022 3019 3016 3018 3018 3015 3016 3019 3016 3016 3018 3016 3017 3023 3023 3021 3022 3023 3021 3019 3020 3021 3021 3021 3019 3016 3016 3017 3017 3016 3017 3017 3016 3016 3018 3019 3021 3021 3021 3022 3022 3020 3018 3015 3016 3016 3014 3013 3012 3010 3012 3014 3012 3009 3010 3011 3011 3011 3011 3012 3011 3004 2993 2988 2990 2989 2980 2973 2979 2984 2979 2975 2978 2980 2979 2978 2978 2977 2976 2976 2977 2976 2975 2974
3021 3017 3017 3019 3017 3013 3010 3012 3012 3009 3010 3012 3008 3008 3011 3010 3011 3015 3016 3014 3015 3017 3015 3013 3015 3016 3014 3015 3013 3009 3009 3010 3010 3010 3010 3010 3010 3010 3012 3013 3014 3016 3017 3017 3018 3016 3012 3009 3010 3010 3007 3008 3010 3009 3011 3012 3007 3006 3006 3007 3007 3006 3006 3007 2999 2988 2988 2990 2984 2980 2979 2975 2978 2982 2977 2971 2972 2974 2974 2973 2972 2973 2973 2972 2972 2970 2969 2967
3014 3011 3011 3014 3011 3007 3005 3005 3005 3005 3005 3005 3002 3001 3004 3004 3004 3005 3006 3007 3008 3010 3009 3005 3006 3007 3007 3009 3007 3003 3004 3004 3003 3004 3004 3004 3004 3004 3004 3006 3007 3009 3011 3011 3012 3012 3008 3003 3004 3004 3001 3002 3005 3005 3006 3004 3000 3001 3003 3002 3002 3001 3001 2996 2985 2982 2991 2989 2977 2975 2979 2976 2975 2978 2975 2970 2969 2968 2967 2967 2967 2967 2967 2968 2967 2965 2963 2961
3008 3006 3007 3007 3003 3001 3000 3001 3002 3000 2998 2999 2996 2994 2997 2997 2996 2997 3000 3002 3000 3000 3002 2998 2997 3000 3001 3001 3000 2996 2997 2999 2997 2997 2998 2997 2998 2998 2997 2998 3000 3002 3003 3003 3004 3005 3002 2999 3000 2999 2995 2996 2998 2998 2998 2997 2993 2993 2996 2996 2997 2997 2992 2984 2979 2982 2987 2981 2972 2975 2976 2972 2973 2974 2970 2967 2965 2963 2962 2962 2961 2960 2959 2960 2962 2961 2958 2955
3001 3000 3001 3000 2996 2994 2995 2995 2996 2993 2991 2993 2990 2987 2990 2990 2989 2992 2994 2994 2992 2992 2994 2991 2990 2994 2994 2993 2992 2988 2989 2993 2990 2990 2993 2990 2989 2992 2991 2991 2993 2994 2993 2993 2995 2994 2993 2991 2993 2995 2991 2988 2990 2990 2988 2988 2986 2984 2986 2990 2993 2989 2980 2977 2978 2980 2978 2971 2967 2971 2971 2968 2968 2966 2963 2962 2960 2958 2957 2954 2954 2953 2951 2951 2955 2955 2951 2948
2992 2992 2994 2992 2987 2987 2988 2987 2989 2986 2983 2985 2982 2982 2984 2982 2983 2987 2985 2984 2986 2987 2987 2986 2985 2987 2987 2986 2985 2982 2983 2985 2982 2982 2986 2984 2983 2986 2984 2983 2987 2987 2984 2985 2986 2985 2985 2983 2986 2990 2983 2977 2980 2980 2977 2979 2980 2980 2982 2983 2979 2972 2967 2970 2974 2971 2968 2966 2965 2966 2965 2961 2959 2959 2957 2955 2953 2952 2950 2947 2948 2947 2944 2944 2947 2946 2942 2940
2982 2982 2986 2984 2978 2978 2981 2980 2982 2979 2975 2977 2978 2977 2977 2976 2980 2984 2978 2976 2980 2981 2981 2982 2981 2980 2979 2976 2976 2976 2977 2977 2974 2976 2979 2977 2977 2978 2976 2976 2979 2979 2978 2979 2979 2977 2977 2975 2977 2979 2972 2966 2970 2971 2970 2975 2976 2971 2969 2964 2957 2957 2962 2965 2963 2959 2959 2961 2960 2957 2953 2951 2953 2954 2951 2947 2945 2943 2941 2942 2943 2940 2937 2939 2940 2937 2934 2934